"Pseudo-MPEC" for P10Ij71

Created 2018 Jul 19 11:18:07 UT using Find_Orb

Click here for an explanation of pseudo-MPECs

 
 Astrometry: 
     P10Ij71  C2018 07 10eRAstrometryo)La+RA;xxNfBX;f31/o12C#KdUm)-c2Y$qe3dxaF51
     P10Ij71  C2018 07 10PtsE!_2fo'Q[KT`icSrJp^]O/IOBg']q!1pVp(C?0NT5):$FHPqhF51
     P10Ij71  C2018 07 10TGwWvtD#1oYBe5mHXf2aAGj5%j]/aVQ#(MTr14Aj0-#U8jAy1hCFF51
     P10Ij71  C2018 07 10G4^VO:aEqisKFk]42'DsaH(8IS#kQ#8?aHnU/:My3REXiYDqWX%2F51
     P10Ij71 KC2018 07 11qJ@NoqR.6mV*#@x*sredacted;1\iLQhw.,/h`B_db4Z3@h#gx-jH21
     P10Ij71 KC2018 07 11r,tkq1/;]:)ZIii7OeP:'tn8qn%JgeyX\0BQG\Z[_I$PyD'mKEg@H21
     P10Ij71 KC2018 07 11^]kQpB5AwL+?#RU^g;alk`6rS;rt50W'(/QJ'Al$mQwJ^SbKHJq9H21
     P10Ij71 KC2018 07 110af#8llHJMP3%:FsmxJq\WZa%*Ysn@_fwwYDy]q)pP)dP*7w\bor734
     P10Ij71 KC2018 07 11?OYyYlr'gWnd.Mba0ZjZdsx;W689Ra1K6EJI7BQ$SyC;L+6?lJ*@734
     P10Ij71 KC2018 07 11yw87kDSVpi!@mm=xqpw:fIh9?[cIU?RXseenwVGTLj/G]d[N4XB[734
     P10Ij71 KC2018 07 11BCtbX7e3Wh?i\=y]KLMZM177Fe%%-Z:*#il5Z1HkSg4i*4L/`Tj3734
     P10Ij71 KC2018 07 13e[$eF]D-=_7tN]/bI1TyhF]Lm7OEr-1rkUYbnq7v._W294e[ZH^`807
     P10Ij71 KC2018 07 13og,*fX7Q*(-dEU5\RC\7!n*5YeI\#/Q$P8b=JyHU\Us'e.==+y.,807
     P10Ij71 KC2018 07 13Hlu[WDq5.#m^;UUeT$tj3GKxUhoaB#GjoC%'AQpOTchoC4LNEOCP807

Station data:
(734) Farpoint Observatory, Eskridge  (N38.890107 W96.001400)  US/Kansas.
   Observer G. Hug. .3 meter s-c + CCD.
(807) Cerro Tololo Observatory, La Serena  (S30.169136 W70.805900)  Chile.
   1.5-m Ritchey-Chrétien.
(F51) Pan-STARRS 1, Haleakala  (N20.707235 W156.255910)  US/Hawaii.
   Observers N. Primak, A. Schultz, S. Watters, J. Thiel, T. Goggia. Measurer
   PS1 Science Consortium. 1.8-m Ritchey-Chrétien + CCD.
(H21) Astronomical Research Observatory, Westfield  (N39.483057 W87.968270)
   US/Illinois. 0.76-m f/3.0 astrograph + CCD.

Orbital elements:  P10Ij71
   Perihelion 2018 Nov 8.277266 +/- 7.91 TT =  6:39:15 (JD 2458430.777266)
Epoch 2018 Jul 13.0 TT = JDT 2458312.5   Earth MOID: 0.8054   AutoNEOCP
M 324.40556 +/- 4.4                 (J2000 ecliptic)
n   0.30094065 +/- 0.0171           Peri.  235.47084 +/- 4.1
a   2.20537344 +/- 0.0837           Node   143.87372 +/- 0.25
e   0.2311051 +/- 0.0207            Incl.   49.75745 +/- 0.58
P   3.28                   H 18.7   G  0.15   U 10.0  
q 1.69570032 +/- 0.022    Q 2.71504657 +/- 0.14
From 14 observations 2018 July 10-13; mean residual 0".26
Residuals in arcseconds: 
180710 F51  .03+  .04+    180711 H21  .06-  .41+    180711 734  .05-  1.1-    
180710 F51  .05-  .04+    180711 H21  .07+  .29+    180713 807  .01+  .03-    
180710 F51  .01+  .08-    180711 734  .24-  .17+    180713 807  .03+  .04+    
180710 F51  .00   .04-    180711 734  .17-  .14+    180713 807  .04-  .00     
180711 H21  .20+  .13+    180711 734  .22+  .10-    

Ephemerides (geocentric):
Date (UTC) HH   RA              Dec         delta   r     elong  mag " sig PA
---- -- -- --  -------------   -----------  ------ ------ -----  --- ---- ---
2018 07 19 11  23 42 29.789   -06 04 32.62  1.0679 1.8303 122.8 21.4 11.1  46
2018 07 19 12  23 42 32.021   -06 05 55.34  1.0674 1.8302 122.9 21.4 11.2  46
2018 07 19 13  23 42 34.250   -06 07 18.16  1.0670 1.8301 122.9 21.4 11.3  46
2018 07 19 14  23 42 36.478   -06 08 41.08  1.0665 1.8300 123.0 21.4 11.5  46
2018 07 19 15  23 42 38.703   -06 10 04.10  1.0660 1.8300 123.0 21.4 11.6  46
2018 07 19 16  23 42 40.927   -06 11 27.21  1.0655 1.8299 123.0 21.4 11.7  46
2018 07 19 17  23 42 43.148   -06 12 50.43  1.0650 1.8298 123.1 21.4 11.9  46
2018 07 19 18  23 42 45.368   -06 14 13.74  1.0645 1.8297 123.1 21.4 12.0  46
2018 07 19 19  23 42 47.586   -06 15 37.15  1.0641 1.8296 123.1 21.4 12.1  46
2018 07 19 20  23 42 49.801   -06 17 00.66  1.0636 1.8295 123.2 21.4 12.3  46
2018 07 19 21  23 42 52.015   -06 18 24.27  1.0631 1.8294 123.2 21.4 12.4  46
2018 07 19 22  23 42 54.227   -06 19 47.98  1.0626 1.8293 123.3 21.4 12.6  46
2018 07 19 23  23 42 56.437   -06 21 11.79  1.0621 1.8292 123.3 21.4 12.7  46
2018 07 20 00  23 42 58.644   -06 22 35.69  1.0616 1.8291 123.3 21.4 12.8  46
2018 07 20 01  23 43 00.850   -06 23 59.70  1.0612 1.8290 123.4 21.4 13.0  46
2018 07 20 02  23 43 03.054   -06 25 23.80  1.0607 1.8290 123.4 21.4 13.1  46
2018 07 20 03  23 43 05.256   -06 26 48.00  1.0602 1.8289 123.5 21.4 13.3  46
2018 07 20 04  23 43 07.456   -06 28 12.31  1.0597 1.8288 123.5 21.4 13.4  46
2018 07 20 05  23 43 09.654   -06 29 36.71  1.0592 1.8287 123.5 21.4 13.6  46
2018 07 20 06  23 43 11.849   -06 31 01.21  1.0588 1.8286 123.6 21.4 13.7  46
2018 07 20 07  23 43 14.043   -06 32 25.81  1.0583 1.8285 123.6 21.4 13.9  46
2018 07 20 08  23 43 16.235   -06 33 50.51  1.0578 1.8284 123.7 21.4 14.0  46
2018 07 20 09  23 43 18.425   -06 35 15.30  1.0573 1.8283 123.7 21.4 14.2  46
2018 07 20 10  23 43 20.613   -06 36 40.20  1.0569 1.8282 123.7 21.4 14.3  46
2018 07 20 11  23 43 22.799   -06 38 05.20  1.0564 1.8281 123.8 21.4 14.5  46
2018 07 20 12  23 43 24.983   -06 39 30.30  1.0559 1.8280 123.8 21.4 14.6  46
2018 07 20 13  23 43 27.165   -06 40 55.49  1.0554 1.8280 123.9 21.4 14.8  46
2018 07 20 14  23 43 29.345   -06 42 20.79  1.0549 1.8279 123.9 21.4 14.9  46
2018 07 20 15  23 43 31.523   -06 43 46.18  1.0545 1.8278 123.9 21.4 15.1  46
2018 07 20 16  23 43 33.699   -06 45 11.68  1.0540 1.8277 124.0 21.4 15.2  46
2018 07 20 17  23 43 35.872   -06 46 37.27  1.0535 1.8276 124.0 21.4 15.4  46
2018 07 20 18  23 43 38.044   -06 48 02.97  1.0530 1.8275 124.1 21.4 15.5  46
2018 07 20 19  23 43 40.214   -06 49 28.76  1.0526 1.8274 124.1 21.4 15.7  46
2018 07 20 20  23 43 42.382   -06 50 54.65  1.0521 1.8273 124.1 21.4 15.9  46
2018 07 20 21  23 43 44.548   -06 52 20.65  1.0516 1.8272 124.2 21.4 16.0  46
2018 07 20 22  23 43 46.712   -06 53 46.74  1.0512 1.8271 124.2 21.4 16.2  46
2018 07 20 23  23 43 48.873   -06 55 12.94  1.0507 1.8271 124.3 21.4 16.3  46
2018 07 21 00  23 43 51.033   -06 56 39.23  1.0502 1.8270 124.3 21.4 16.5  46
2018 07 21 01  23 43 53.191   -06 58 05.62  1.0497 1.8269 124.3 21.4 16.7  46
2018 07 21 02  23 43 55.347   -06 59 32.12  1.0493 1.8268 124.4 21.4 16.8  46
2018 07 21 03  23 43 57.500   -07 00 58.71  1.0488 1.8267 124.4 21.4 17.0  46
2018 07 21 04  23 43 59.652   -07 02 25.40  1.0483 1.8266 124.4 21.4 17.2  46
2018 07 21 05  23 44 01.802   -07 03 52.20  1.0478 1.8265 124.5 21.4 17.3  46
2018 07 21 06  23 44 03.949   -07 05 19.09  1.0474 1.8264 124.5 21.4 17.5  46
2018 07 21 07  23 44 06.095   -07 06 46.09  1.0469 1.8263 124.6 21.4 17.7  46
2018 07 21 08  23 44 08.238   -07 08 13.18  1.0464 1.8262 124.6 21.4 17.8  46
2018 07 21 09  23 44 10.380   -07 09 40.38  1.0460 1.8262 124.6 21.4 18.0  46
2018 07 21 10  23 44 12.519   -07 11 07.67  1.0455 1.8261 124.7 21.4 18.2  46